Satellite-Ground Cal/Val Site Overpasses Predictions

Prediction of Satellite NPP Overpassing Cal/Val Site: Antarctic Dome C

Ground Cal/Val Site Location: Latitude: -75.10, Longitude: 123.35; Satellite-Ground Site NADIR distance within 100 km.

Table of predicted overpasses for the next 14.0 days since TLE Epoch: 5/21/2016
Interval Starting Time Ending Time Minimum Distance Time Minimum Distance (km)
1 05/23/2016 15:02:15 05/23/2016 15:02:38 05/23/2016 15:02:27 57.52
2 05/24/2016 14:43:25 05/24/2016 14:43:50 05/24/2016 14:43:37 51.74
3 05/25/2016 07:45:07 05/25/2016 07:45:27 05/25/2016 07:45:17 72.15
4 05/26/2016 07:26:13 05/26/2016 07:26:40 05/26/2016 07:26:27 35.84
5 05/28/2016 15:08:39 05/28/2016 15:08:48 05/28/2016 15:08:44 95.36
6 05/29/2016 14:49:39 05/29/2016 14:50:08 05/29/2016 14:49:54 15.89
7 05/31/2016 07:32:29 05/31/2016 07:32:58 05/31/2016 07:32:43 2.44


NCC Satellite Cal/Val Overpasses Prediction Service
